Time,TemperatureF,DewpointF,PressureIn,WindDirection,WindDirectionDegrees,WindSpeedMPH,WindSpeedGustMPH,Humidity,HourlyPrecipIn,Conditions,Clouds,dailyrainin,SoftwareType,DateUTC
2013-08-18 00:03:00,68.0,62.7,29.88,South,180,15.0,16.0,83,0.00,,CLR,0.00,VWS V14.01,2013-08-18 06:03:00,
2013-08-18 00:08:00,68.0,63.0,29.88,South,180,11.0,16.0,84,0.00,,CLR,0.00,VWS V14.01,2013-08-18 06:08:00,
2013-08-18 00:13:00,68.0,63.0,29.88,South,180,10.0,16.0,84,0.00,,CLR,0.00,VWS V14.01,2013-08-18 06:13:00,
2013-08-18 00:18:00,68.0,63.0,29.88,South,180,13.0,16.0,84,0.00,,CLR,0.00,VWS V14.01,2013-08-18 06:18:00,
2013-08-18 00:23:00,68.0,63.3,29.88,South,180,13.0,16.0,85,0.00,,CLR,0.00,VWS V14.01,2013-08-18 06:23:00,
2013-08-18 00:29:00,68.0,63.3,29.88,SSW,202,12.0,16.0,85,0.00,,CLR,0.00,VWS V14.01,2013-08-18 06:29:00,
2013-08-18 00:34:00,68.0,63.3,29.89,South,180,11.0,13.0,85,0.00,,CLR,0.00,VWS V14.01,2013-08-18 06:34:00,
2013-08-18 00:39:00,68.0,63.3,29.89,South,180,11.0,15.0,85,0.00,,CLR,0.00,VWS V14.01,2013-08-18 06:39:00,
2013-08-18 00:44:00,68.0,63.3,29.88,South,180,13.0,15.0,85,0.00,,CLR,0.00,VWS V14.01,2013-08-18 06:44:00,
2013-08-18 00:49:00,68.0,63.3,29.88,South,180,9.0,15.0,85,0.00,,CLR,0.00,VWS V14.01,2013-08-18 06:49:00,
2013-08-18 00:54:00,68.0,63.3,29.89,South,180,9.0,15.0,85,0.00,,CLR,0.00,VWS V14.01,2013-08-18 06:54:00,
2013-08-18 00:59:00,67.0,62.0,29.89,South,180,9.0,15.0,84,0.00,,CLR,0.00,VWS V14.01,2013-08-18 06:59:00,
2013-08-18 01:04:00,67.0,62.0,29.89,SSW,202,6.0,11.0,84,0.00,,CLR,0.00,VWS V14.01,2013-08-18 07:04:00,
2013-08-18 01:09:00,67.0,61.7,29.89,South,180,7.0,11.0,83,0.00,,CLR,0.00,VWS V14.01,2013-08-18 07:09:00,
2013-08-18 01:27:00,66.0,60.0,29.90,SSE,157,7.0,13.0,81,0.00,,CLR,0.00,VWS V14.01,2013-08-18 07:27:00,
2013-08-18 01:32:00,66.0,60.0,29.89,SSE,157,9.0,11.0,81,0.00,,CLR,0.00,VWS V14.01,2013-08-18 07:32:00,
2013-08-18 01:37:00,66.0,60.3,29.89,SSE,157,7.0,11.0,82,0.00,,CLR,0.00,VWS V14.01,2013-08-18 07:37:00,
2013-08-18 01:42:00,66.0,60.7,29.88,SSE,157,3.0,11.0,83,0.00,,CLR,0.00,VWS V14.01,2013-08-18 07:42:00,
2013-08-18 01:47:00,66.0,60.7,29.88,SE,135,3.0,11.0,83,0.00,,CLR,0.00,VWS V14.01,2013-08-18 07:47:00,
2013-08-18 01:52:00,67.0,62.0,29.88,SSE,157,2.0,11.0,84,0.00,,CLR,0.00,VWS V14.01,2013-08-18 07:52:00,
2013-08-18 01:57:00,66.0,60.7,29.88,SE,135,6.0,11.0,83,0.00,,CLR,0.00,VWS V14.01,2013-08-18 07:57:00,
2013-08-18 02:02:00,65.0,58.3,29.89,ESE,112,4.0,10.0,79,0.00,,CLR,0.00,VWS V14.01,2013-08-18 08:02:00,
2013-08-18 02:08:00,65.0,56.9,29.89,SE,135,2.0,10.0,75,0.00,,CLR,0.00,VWS V14.01,2013-08-18 08:08:00,
2013-08-18 02:13:00,65.0,56.5,29.89,SSE,157,0.0,10.0,74,0.00,,CLR,0.00,VWS V14.01,2013-08-18 08:13:00,
2013-08-18 02:18:00,64.0,54.0,29.89,South,180,5.0,10.0,70,0.00,,CLR,0.00,VWS V14.01,2013-08-18 08:18:00,
2013-08-18 02:23:00,64.0,53.6,29.89,SSE,157,7.0,10.0,69,0.00,,CLR,0.00,VWS V14.01,2013-08-18 08:23:00,
2013-08-18 02:28:00,65.0,55.4,29.89,SE,135,8.0,12.0,71,0.00,,CLR,0.00,VWS V14.01,2013-08-18 08:28:00,
2013-08-18 02:33:00,65.0,55.8,29.89,SSE,157,9.0,11.0,72,0.00,,CLR,0.00,VWS V14.01,2013-08-18 08:33:00,
2013-08-18 02:38:00,65.0,55.8,29.89,South,180,9.0,13.0,72,0.00,,CLR,0.00,VWS V14.01,2013-08-18 08:38:00,
2013-08-18 02:43:00,65.0,56.5,29.89,SSE,157,10.0,13.0,74,0.00,,CLR,0.00,VWS V14.01,2013-08-18 08:43:00,
2013-08-18 02:48:00,65.0,57.3,29.89,SSE,157,8.0,13.0,76,0.00,,CLR,0.00,VWS V14.01,2013-08-18 08:48:00,
2013-08-18 02:53:00,65.0,58.0,29.89,SE,135,10.0,13.0,78,0.00,,CLR,0.00,VWS V14.01,2013-08-18 08:53:00,
2013-08-18 02:58:00,65.0,55.8,29.89,SE,135,9.0,13.0,72,0.00,,CLR,0.00,VWS V14.01,2013-08-18 08:58:00,
2013-08-18 03:03:00,64.0,52.8,29.89,ESE,112,2.0,6.0,67,0.00,,CLR,0.00,VWS V14.01,2013-08-18 09:03:00,
2013-08-18 03:08:00,64.0,51.6,29.89,SE,135,4.0,7.0,64,0.00,,CLR,0.00,VWS V14.01,2013-08-18 09:08:00,
2013-08-18 03:13:00,64.0,52.0,29.89,SE,135,6.0,8.0,65,0.00,,CLR,0.00,VWS V14.01,2013-08-18 09:13:00,
2013-08-18 03:18:00,64.0,52.8,29.89,SE,135,2.0,8.0,67,0.00,,CLR,0.00,VWS V14.01,2013-08-18 09:18:00,
2013-08-18 03:23:00,64.0,52.8,29.89,SE,135,1.0,8.0,67,0.00,,CLR,0.00,VWS V14.01,2013-08-18 09:23:00,
2013-08-18 03:28:00,64.0,54.0,29.89,SE,135,3.0,8.0,70,0.00,,CLR,0.00,VWS V14.01,2013-08-18 09:28:00,
2013-08-18 03:33:00,64.0,54.8,29.89,SSE,157,6.0,7.0,72,0.00,,CLR,0.00,VWS V14.01,2013-08-18 09:33:00,
2013-08-18 03:38:00,64.0,55.2,29.89,South,180,5.0,7.0,73,0.00,,CLR,0.00,VWS V14.01,2013-08-18 09:38:00,
2013-08-18 03:43:00,64.0,55.6,29.89,SSE,157,5.0,7.0,74,0.00,,CLR,0.00,VWS V14.01,2013-08-18 09:43:00,
2013-08-18 03:48:00,64.0,56.7,29.89,WNW,292,0.0,7.0,77,0.00,,CLR,0.00,VWS V14.01,2013-08-18 09:48:00,
2013-08-18 03:53:00,63.0,54.6,29.90,NW,315,4.0,7.0,74,0.00,,CLR,0.00,VWS V14.01,2013-08-18 09:53:00,
2013-08-18 03:59:00,62.0,54.4,29.90,NNW,337,0.0,7.0,76,0.00,,CLR,0.00,VWS V14.01,2013-08-18 09:59:00,
2013-08-18 04:04:00,62.0,44.2,29.91,NW,315,0.0,0.0,52,0.00,,CLR,0.00,VWS V14.01,2013-08-18 10:04:00,
2013-08-18 04:09:00,62.0,42.6,29.91,NW,315,0.0,0.0,49,0.00,,CLR,0.00,VWS V14.01,2013-08-18 10:09:00,
2013-08-18 04:14:00,62.0,46.1,29.91,WNW,292,0.0,2.0,56,0.00,,CLR,0.00,VWS V14.01,2013-08-18 10:14:00,
2013-08-18 04:19:00,62.0,48.0,29.91,West,270,0.0,2.0,60,0.00,,CLR,0.00,VWS V14.01,2013-08-18 10:19:00,
2013-08-18 04:24:00,61.0,46.6,29.91,WSW,247,0.0,2.0,59,0.00,,CLR,0.00,VWS V14.01,2013-08-18 10:24:00,
2013-08-18 04:29:00,61.0,46.6,29.91,WSW,247,0.0,2.0,59,0.00,,CLR,0.00,VWS V14.01,2013-08-18 10:29:00,
2013-08-18 04:34:00,61.0,44.7,29.92,WNW,292,0.0,0.0,55,0.00,,CLR,0.00,VWS V14.01,2013-08-18 10:34:00,
2013-08-18 04:39:00,60.0,42.3,29.92,SSW,202,0.0,0.0,52,0.00,,CLR,0.00,VWS V14.01,2013-08-18 10:39:00,
2013-08-18 04:44:00,61.0,37.2,29.93,SW,225,0.0,0.0,41,0.00,,CLR,0.00,VWS V14.01,2013-08-18 10:44:00,
2013-08-18 04:49:00,60.0,41.8,29.93,SW,225,0.0,0.0,51,0.00,,CLR,0.00,VWS V14.01,2013-08-18 10:49:00,
2013-08-18 04:54:00,60.0,38.0,29.93,SW,225,0.0,2.0,44,0.00,,CLR,0.00,VWS V14.01,2013-08-18 10:54:00,
2013-08-18 04:59:00,61.0,39.0,29.93,West,270,0.0,2.0,44,0.00,,CLR,0.00,VWS V14.01,2013-08-18 10:59:00,
2013-08-18 05:04:00,61.0,40.7,29.93,West,270,0.0,2.0,47,0.00,,CLR,0.00,VWS V14.01,2013-08-18 11:04:00,
2013-08-18 05:09:00,61.0,39.5,29.93,West,270,0.0,2.0,45,0.00,,CLR,0.00,VWS V14.01,2013-08-18 11:09:00,
2013-08-18 05:14:00,61.0,36.5,29.93,WSW,247,1.0,5.0,40,0.00,,CLR,0.00,VWS V14.01,2013-08-18 11:14:00,
2013-08-18 05:19:00,61.0,39.0,29.93,West,270,0.0,5.0,44,0.00,,CLR,0.00,VWS V14.01,2013-08-18 11:19:00,
2013-08-18 05:24:00,61.0,43.3,29.93,West,270,0.0,5.0,52,0.00,,CLR,0.00,VWS V14.01,2013-08-18 11:24:00,
2013-08-18 05:29:00,60.0,45.7,29.93,West,270,0.0,5.0,59,0.00,,CLR,0.00,VWS V14.01,2013-08-18 11:29:00,
2013-08-18 05:34:00,60.0,44.3,29.93,West,270,0.0,0.0,56,0.00,,CLR,0.00,VWS V14.01,2013-08-18 11:34:00,
2013-08-18 05:39:00,60.0,38.0,29.93,West,270,0.0,0.0,44,0.00,,CLR,0.00,VWS V14.01,2013-08-18 11:39:00,
2013-08-18 05:44:00,60.0,36.9,29.93,West,270,0.0,4.0,42,0.00,,CLR,0.00,VWS V14.01,2013-08-18 11:44:00,
2013-08-18 05:49:00,60.0,39.7,29.93,SW,225,1.0,4.0,47,0.00,,CLR,0.00,VWS V14.01,2013-08-18 11:49:00,
2013-08-18 05:54:00,61.0,43.3,29.93,SW,225,0.0,4.0,52,0.00,,CLR,0.00,VWS V14.01,2013-08-18 11:54:00,
2013-08-18 05:59:00,61.0,46.6,29.93,SW,225,0.0,4.0,59,0.00,,CLR,0.00,VWS V14.01,2013-08-18 11:59:00,
2013-08-18 06:04:00,61.0,47.9,29.93,SW,225,0.0,0.0,62,0.00,,CLR,0.00,VWS V14.01,2013-08-18 12:04:00,
2013-08-18 06:09:00,60.0,47.4,29.93,SW,225,0.0,0.0,63,0.00,,CLR,0.00,VWS V14.01,2013-08-18 12:09:00,
2013-08-18 06:14:00,60.0,44.7,29.93,WNW,292,2.0,3.0,57,0.00,,CLR,0.00,VWS V14.01,2013-08-18 12:14:00,
2013-08-18 06:19:00,60.0,43.8,29.93,West,270,2.0,4.0,55,0.00,,CLR,0.00,VWS V14.01,2013-08-18 12:19:00,
2013-08-18 06:24:00,60.0,47.8,29.94,WNW,292,0.0,4.0,64,0.00,,CLR,0.00,VWS V14.01,2013-08-18 12:24:00,
2013-08-18 06:29:00,61.0,54.1,29.94,WNW,292,0.0,4.0,78,0.00,,CLR,0.00,VWS V14.01,2013-08-18 12:29:00,
2013-08-18 06:34:00,62.0,56.5,29.93,NW,315,0.0,0.0,82,0.00,,CLR,0.00,VWS V14.01,2013-08-18 12:34:00,
2013-08-18 06:39:00,61.0,56.5,29.93,NNW,337,0.0,0.0,85,0.00,,CLR,0.00,VWS V14.01,2013-08-18 12:39:00,
2013-08-18 06:44:00,61.0,56.1,29.93,North,360,0.0,0.0,84,0.00,,CLR,0.00,VWS V14.01,2013-08-18 12:44:00,
2013-08-18 06:49:00,61.0,56.1,29.93,NW,315,0.0,0.0,84,0.00,,CLR,0.00,VWS V14.01,2013-08-18 12:49:00,
2013-08-18 06:54:00,61.0,56.1,29.93,NW,315,0.0,0.0,84,0.00,,CLR,0.00,VWS V14.01,2013-08-18 12:54:00,
2013-08-18 06:59:00,62.0,56.8,29.93,WSW,247,0.0,0.0,83,0.00,,CLR,0.00,VWS V14.01,2013-08-18 12:59:00,
2013-08-18 07:05:00,62.0,57.1,29.92,WSW,247,0.0,0.0,84,0.00,,,0.00,VWS V14.01,2013-08-18 13:05:00,
2013-08-18 07:09:00,62.0,57.5,29.92,WSW,247,0.0,0.0,85,0.00,,,0.00,VWS V14.01,2013-08-18 13:09:00,
2013-08-18 07:15:00,63.0,58.4,29.92,WSW,247,0.0,4.0,85,0.00,,,0.00,VWS V14.01,2013-08-18 13:15:00,
2013-08-18 07:20:00,64.0,59.7,29.92,WSW,247,0.0,4.0,86,0.00,,,0.00,VWS V14.01,2013-08-18 13:20:00,
2013-08-18 07:25:00,65.0,60.7,29.91,West,270,0.0,4.0,86,0.00,,,0.00,VWS V14.01,2013-08-18 13:25:00,
2013-08-18 07:30:00,66.0,61.7,29.91,WSW,247,0.0,4.0,86,0.00,,,0.00,VWS V14.01,2013-08-18 13:30:00,
2013-08-18 07:35:00,66.0,61.4,29.90,WSW,247,0.0,0.0,85,0.00,,,0.00,VWS V14.01,2013-08-18 13:35:00,
2013-08-18 07:40:00,67.0,62.0,29.90,WSW,247,0.0,0.0,84,0.00,,,0.00,VWS V14.01,2013-08-18 13:40:00,
2013-08-18 07:45:00,68.0,63.0,29.88,WSW,247,0.0,0.0,84,0.00,,,0.00,VWS V14.01,2013-08-18 13:45:00,
2013-08-18 07:50:00,69.0,64.3,29.88,WSW,247,0.0,0.0,85,0.00,,,0.00,VWS V14.01,2013-08-18 13:50:00,
2013-08-18 07:55:00,70.0,65.3,29.87,WSW,247,0.0,0.0,85,0.00,,,0.00,VWS V14.01,2013-08-18 13:55:00,
2013-08-18 08:00:00,71.0,65.2,29.87,SSE,157,0.0,0.0,82,0.00,,CLR,0.00,VWS V14.01,2013-08-18 14:00:00,
2013-08-18 08:05:00,71.0,65.2,29.85,ESE,112,3.0,6.0,82,0.00,,CLR,0.00,VWS V14.01,2013-08-18 14:05:00,
2013-08-18 08:10:00,72.0,66.2,29.85,ESE,112,2.0,6.0,82,0.00,,CLR,0.00,VWS V14.01,2013-08-18 14:10:00,
2013-08-18 08:15:00,72.0,65.1,29.85,SSE,157,1.0,6.0,79,0.00,,CLR,0.00,VWS V14.01,2013-08-18 14:15:00,
2013-08-18 08:20:00,73.0,64.6,29.85,South,180,4.0,6.0,75,0.00,,CLR,0.00,VWS V14.01,2013-08-18 14:20:00,
2013-08-18 08:25:00,74.0,65.2,29.83,South,180,5.0,6.0,74,0.00,,CLR,0.00,VWS V14.01,2013-08-18 14:25:00,
2013-08-18 08:30:00,75.0,65.0,29.83,South,180,4.0,6.0,71,0.00,,CLR,0.00,VWS V14.01,2013-08-18 14:30:00,
2013-08-18 08:35:00,75.0,64.6,29.83,SSW,202,4.0,6.0,70,0.00,,CLR,0.00,VWS V14.01,2013-08-18 14:35:00,
2013-08-18 08:40:00,74.0,64.0,29.83,SSW,202,6.0,6.0,71,0.00,,CLR,0.00,VWS V14.01,2013-08-18 14:40:00,
2013-08-18 08:45:00,74.0,63.2,29.84,SSW,202,5.0,7.0,69,0.00,,CLR,0.00,VWS V14.01,2013-08-18 14:45:00,
2013-08-18 09:01:00,75.0,62.5,29.83,SE,135,4.0,6.0,65,0.00,,CLR,0.00,VWS V14.01,2013-08-18 15:01:00,
2013-08-18 09:06:00,75.0,63.3,29.83,SSE,157,6.0,7.0,67,0.00,,CLR,0.00,VWS V14.01,2013-08-18 15:06:00,
2013-08-18 09:12:00,75.0,62.5,29.83,SE,135,7.0,8.0,65,0.00,,CLR,0.00,VWS V14.01,2013-08-18 15:12:00,
2013-08-18 09:17:00,75.0,61.6,29.83,SE,135,4.0,8.0,63,0.00,,CLR,0.00,VWS V14.01,2013-08-18 15:17:00,
2013-08-18 09:22:00,76.0,62.0,29.83,SE,135,0.0,8.0,62,0.00,,CLR,0.00,VWS V14.01,2013-08-18 15:22:00,
2013-08-18 09:27:00,77.0,62.5,29.83,SSW,202,0.0,8.0,61,0.00,,CLR,0.00,VWS V14.01,2013-08-18 15:27:00,
2013-08-18 09:32:00,78.0,61.0,29.82,SSW,202,0.0,0.0,56,0.00,,CLR,0.00,VWS V14.01,2013-08-18 15:32:00,
2013-08-18 09:37:00,78.0,61.5,29.82,WSW,247,0.0,0.0,57,0.00,,CLR,0.00,VWS V14.01,2013-08-18 15:37:00,
2013-08-18 09:42:00,79.0,61.5,29.82,SSE,157,0.0,0.0,55,0.00,,CLR,0.00,VWS V14.01,2013-08-18 15:42:00,
2013-08-18 09:47:00,79.0,60.4,29.82,SSE,157,0.0,0.0,53,0.00,,CLR,0.00,VWS V14.01,2013-08-18 15:47:00,
2013-08-18 09:52:00,79.0,61.0,29.84,North,360,0.0,0.0,54,0.00,,CLR,0.00,VWS V14.01,2013-08-18 15:52:00,
2013-08-18 09:57:00,78.0,62.0,29.84,North,360,9.0,9.0,58,0.00,,CLR,0.00,VWS V14.01,2013-08-18 15:57:00,
2013-08-18 10:02:00,76.0,65.1,29.88,North,360,12.0,12.0,69,0.00,,CLR,0.00,VWS V14.01,2013-08-18 16:02:00,
2013-08-18 10:07:00,75.0,64.6,29.88,North,360,9.0,13.0,70,0.00,,CLR,0.00,VWS V14.01,2013-08-18 16:07:00,
2013-08-18 10:12:00,75.0,65.0,29.88,North,360,16.0,19.0,71,0.00,,CLR,0.00,VWS V14.01,2013-08-18 16:12:00,
2013-08-18 10:17:00,75.0,64.6,29.88,North,360,18.0,26.0,70,0.00,,CLR,0.00,VWS V14.01,2013-08-18 16:17:00,
2013-08-18 10:22:00,75.0,65.4,29.89,North,360,17.0,26.0,72,0.00,,CLR,0.00,VWS V14.01,2013-08-18 16:22:00,
2013-08-18 10:27:00,75.0,65.0,29.89,North,360,21.0,26.0,71,0.00,,CLR,0.00,VWS V14.01,2013-08-18 16:27:00,
2013-08-18 10:32:00,75.0,65.4,29.88,NNW,337,18.0,25.0,72,0.00,,CLR,0.00,VWS V14.01,2013-08-18 16:32:00,
2013-08-18 10:37:00,75.0,65.8,29.88,North,360,25.0,26.0,73,0.00,,CLR,0.00,VWS V14.01,2013-08-18 16:37:00,
2013-08-18 10:42:00,76.0,65.9,29.87,NNW,337,14.0,30.0,71,0.00,,CLR,0.00,VWS V14.01,2013-08-18 16:42:00,
2013-08-18 10:47:00,76.0,65.5,29.87,North,360,20.0,31.0,70,0.00,,CLR,0.00,VWS V14.01,2013-08-18 16:47:00,
2013-08-18 10:52:00,77.0,66.1,29.87,NNW,337,20.0,31.0,69,0.00,,CLR,0.00,VWS V14.01,2013-08-18 16:52:00,
2013-08-18 10:57:00,77.0,65.6,29.87,NNW,337,24.0,31.0,68,0.00,,CLR,0.00,VWS V14.01,2013-08-18 16:57:00,
2013-08-18 11:02:00,76.0,65.5,29.89,NNW,337,21.0,26.0,70,0.00,,CLR,0.00,VWS V14.01,2013-08-18 17:02:00,
2013-08-18 11:07:00,76.0,65.9,29.89,NNW,337,16.0,28.0,71,0.00,,CLR,0.00,VWS V14.01,2013-08-18 17:07:00,
2013-08-18 11:12:00,77.0,66.9,29.87,NNW,337,20.0,28.0,71,0.00,,CLR,0.00,VWS V14.01,2013-08-18 17:12:00,
2013-08-18 11:17:00,77.0,65.6,29.87,NW,315,16.0,28.0,68,0.00,,CLR,0.00,VWS V14.01,2013-08-18 17:17:00,
2013-08-18 11:22:00,76.0,65.5,29.89,NNW,337,19.0,28.0,70,0.00,,CLR,0.00,VWS V14.01,2013-08-18 17:22:00,
2013-08-18 11:27:00,77.0,65.6,29.89,North,360,19.0,28.0,68,0.00,,CLR,0.00,VWS V14.01,2013-08-18 17:27:00,
2013-08-18 11:32:00,76.0,65.5,29.88,North,360,23.0,25.0,70,0.00,,CLR,0.00,VWS V14.01,2013-08-18 17:32:00,
2013-08-18 11:37:00,76.0,65.9,29.88,North,360,19.0,25.0,71,0.00,,CLR,0.00,VWS V14.01,2013-08-18 17:37:00,
2013-08-18 11:42:00,76.0,65.5,29.87,North,360,13.0,25.0,70,0.00,,CLR,0.00,VWS V14.01,2013-08-18 17:42:00,
2013-08-18 11:47:00,78.0,67.0,29.87,North,360,13.0,25.0,69,0.00,,CLR,0.00,VWS V14.01,2013-08-18 17:47:00,
2013-08-18 11:52:00,79.0,66.7,29.86,North,360,15.0,25.0,66,0.00,,CLR,0.00,VWS V14.01,2013-08-18 17:52:00,
2013-08-18 11:57:00,78.0,67.4,29.86,NNW,337,15.0,25.0,70,0.00,,CLR,0.00,VWS V14.01,2013-08-18 17:57:00,
2013-08-18 12:02:00,77.0,66.1,29.88,North,360,15.0,21.0,69,0.00,,CLR,0.00,VWS V14.01,2013-08-18 18:02:00,
2013-08-18 12:07:00,77.0,65.2,29.88,North,360,15.0,21.0,67,0.00,,CLR,0.00,VWS V14.01,2013-08-18 18:07:00,
2013-08-18 12:12:00,78.0,66.2,29.87,North,360,12.0,21.0,67,0.00,,CLR,0.00,VWS V14.01,2013-08-18 18:12:00,
2013-08-18 12:17:00,78.0,66.2,29.87,NNW,337,12.0,21.0,67,0.00,,CLR,0.00,VWS V14.01,2013-08-18 18:17:00,
2013-08-18 12:22:00,76.0,65.1,29.87,North,360,13.0,21.0,69,0.00,,CLR,0.00,VWS V14.01,2013-08-18 18:22:00,
2013-08-18 12:28:00,76.0,65.9,29.87,North,360,10.0,21.0,71,0.00,,CLR,0.00,VWS V14.01,2013-08-18 18:28:00,
2013-08-18 12:33:00,75.0,65.0,29.90,North,360,10.0,13.0,71,0.00,,CLR,0.00,VWS V14.01,2013-08-18 18:33:00,
2013-08-18 12:38:00,75.0,65.4,29.90,North,360,15.0,16.0,72,0.00,,CLR,0.00,VWS V14.01,2013-08-18 18:38:00,
2013-08-18 12:43:00,74.0,65.6,29.90,NW,315,13.0,17.0,75,0.00,,CLR,0.00,VWS V14.01,2013-08-18 18:43:00,
2013-08-18 12:48:00,74.0,65.6,29.90,NW,315,11.0,17.0,75,0.00,,CLR,0.00,VWS V14.01,2013-08-18 18:48:00,
2013-08-18 12:53:00,74.0,65.2,29.91,North,360,12.0,17.0,74,0.00,,,0.00,VWS V14.01,2013-08-18 18:53:00,
2013-08-18 12:58:00,74.0,64.8,29.91,North,360,13.0,17.0,73,0.00,,,0.00,VWS V14.01,2013-08-18 18:58:00,
2013-08-18 13:03:00,73.0,65.4,29.90,North,360,21.0,21.0,77,0.00,,-RA,0.00,VWS V14.01,2013-08-18 19:03:00,
2013-08-18 13:08:00,72.0,65.1,29.90,NNE,22,16.0,21.0,79,0.00,,-RA,0.00,VWS V14.01,2013-08-18 19:08:00,
2013-08-18 13:13:00,72.0,65.5,29.91,NNE,22,15.0,21.0,80,0.00,,-RA,0.00,VWS V14.01,2013-08-18 19:13:00,
2013-08-18 13:18:00,72.0,65.9,29.91,South,180,10.0,21.0,81,0.00,,-RA,0.00,VWS V14.01,2013-08-18 19:18:00,
2013-08-18 13:23:00,73.0,65.4,29.92,East,90,7.0,21.0,77,0.00,,-RA,0.00,VWS V14.01,2013-08-18 19:23:00,
2013-08-18 13:28:00,73.0,65.0,29.92,NE,45,11.0,21.0,76,0.00,,-RA,0.00,VWS V14.01,2013-08-18 19:28:00,
2013-08-18 13:33:00,73.0,65.4,29.89,ESE,112,12.0,16.0,77,0.00,,-RA,0.00,VWS V14.01,2013-08-18 19:33:00,
2013-08-18 13:38:00,74.0,64.8,29.89,East,90,14.0,25.0,73,0.00,,-RA,0.00,VWS V14.01,2013-08-18 19:38:00,
2013-08-18 13:43:00,74.0,63.6,29.85,ENE,67,20.0,28.0,70,0.00,,-RA,0.00,VWS V14.01,2013-08-18 19:43:00,
2013-08-18 13:48:00,77.0,62.1,29.85,NE,45,17.0,32.0,60,0.00,,-RA,0.00,VWS V14.01,2013-08-18 19:48:00,
2013-08-18 13:53:00,80.0,58.6,29.82,ENE,67,10.0,32.0,48,0.00,,-RA,0.00,VWS V14.01,2013-08-18 19:53:00,
2013-08-18 13:58:00,79.0,64.9,29.82,NE,45,26.0,32.0,62,0.00,,-RA,0.00,VWS V14.01,2013-08-18 19:58:00,
2013-08-18 14:03:00,80.0,64.4,29.81,East,90,12.0,24.0,59,0.00,,CLR,0.00,VWS V14.01,2013-08-18 20:03:00,
2013-08-18 14:08:00,79.0,63.5,29.81,ENE,67,23.0,26.0,59,0.00,,CLR,0.00,VWS V14.01,2013-08-18 20:08:00,
2013-08-18 14:13:00,79.0,65.8,29.81,East,90,19.0,28.0,64,0.00,,CLR,0.00,VWS V14.01,2013-08-18 20:13:00,
2013-08-18 14:18:00,79.0,65.8,29.81,East,90,24.0,29.0,64,0.00,,CLR,0.00,VWS V14.01,2013-08-18 20:18:00,
2013-08-18 14:23:00,78.0,65.3,29.79,East,90,22.0,29.0,65,0.00,,CLR,0.00,VWS V14.01,2013-08-18 20:23:00,
2013-08-18 14:28:00,78.0,64.8,29.79,East,90,20.0,29.0,64,0.00,,CLR,0.00,VWS V14.01,2013-08-18 20:28:00,
2013-08-18 14:33:00,78.0,66.6,29.82,East,90,14.0,23.0,68,0.00,,CLR,0.00,VWS V14.01,2013-08-18 20:33:00,
2013-08-18 14:38:00,79.0,67.1,29.82,ENE,67,9.0,23.0,67,0.00,,CLR,0.00,VWS V14.01,2013-08-18 20:38:00,
2013-08-18 14:43:00,80.0,66.7,29.81,East,90,9.0,23.0,64,0.00,,CLR,0.00,VWS V14.01,2013-08-18 20:43:00,
2013-08-18 14:48:00,80.0,65.8,29.81,SSE,157,5.0,23.0,62,0.00,,CLR,0.00,VWS V14.01,2013-08-18 20:48:00,
2013-08-18 14:54:00,81.0,65.3,29.81,SSE,157,13.0,23.0,59,0.00,,CLR,0.00,VWS V14.01,2013-08-18 20:54:00,
2013-08-18 14:59:00,81.0,64.8,29.81,ESE,112,11.0,23.0,58,0.00,,CLR,0.00,VWS V14.01,2013-08-18 20:59:00,
2013-08-18 15:04:00,82.0,66.3,29.81,SE,135,6.0,21.0,59,0.00,,CLR,0.00,VWS V14.01,2013-08-18 21:04:00,
2013-08-18 15:09:00,82.0,65.8,29.81,SE,135,13.0,21.0,58,0.00,,CLR,0.00,VWS V14.01,2013-08-18 21:09:00,
2013-08-18 15:14:00,82.0,65.3,29.81,SSE,157,17.0,21.0,57,0.00,,CLR,0.00,VWS V14.01,2013-08-18 21:14:00,
2013-08-18 15:19:00,82.0,66.3,29.81,SSE,157,16.0,21.0,59,0.00,,CLR,0.00,VWS V14.01,2013-08-18 21:19:00,
2013-08-18 15:24:00,81.0,66.3,29.81,SSE,157,12.0,21.0,61,0.00,,CLR,0.00,VWS V14.01,2013-08-18 21:24:00,
2013-08-18 15:29:00,81.0,64.3,29.81,SSE,157,8.0,21.0,57,0.00,,CLR,0.00,VWS V14.01,2013-08-18 21:29:00,
2013-08-18 15:34:00,82.0,66.3,29.81,South,180,14.0,16.0,59,0.00,,CLR,0.00,VWS V14.01,2013-08-18 21:34:00,
2013-08-18 15:39:00,81.0,65.3,29.81,South,180,10.0,16.0,59,0.00,,CLR,0.00,VWS V14.01,2013-08-18 21:39:00,
2013-08-18 15:44:00,81.0,66.3,29.83,South,180,10.0,17.0,61,0.00,,CLR,0.00,VWS V14.01,2013-08-18 21:44:00,
2013-08-18 15:49:00,80.0,65.8,29.83,SSE,157,10.0,17.0,62,0.00,,CLR,0.00,VWS V14.01,2013-08-18 21:49:00,
2013-08-18 15:54:00,78.0,66.2,29.83,SSE,157,10.0,17.0,67,0.00,,CLR,0.00,VWS V14.01,2013-08-18 21:54:00,
2013-08-18 15:59:00,78.0,65.7,29.83,SSE,157,9.0,17.0,66,0.00,,CLR,0.00,VWS V14.01,2013-08-18 21:59:00,
2013-08-18 16:04:00,78.0,65.7,29.85,South,180,9.0,10.0,66,0.00,,CLR,0.00,VWS V14.01,2013-08-18 22:04:00,
2013-08-18 16:09:00,78.0,66.2,29.85,SSW,202,6.0,10.0,67,0.00,,CLR,0.00,VWS V14.01,2013-08-18 22:09:00,
2013-08-18 16:14:00,77.0,65.6,29.87,NW,315,0.0,10.0,68,0.00,,CLR,0.00,VWS V14.01,2013-08-18 22:14:00,
2013-08-18 16:19:00,77.0,66.9,29.87,NW,315,0.0,10.0,71,0.00,,CLR,0.00,VWS V14.01,2013-08-18 22:19:00,
2013-08-18 16:24:00,77.0,67.3,29.87,NW,315,0.0,10.0,72,0.00,,CLR,0.00,VWS V14.01,2013-08-18 22:24:00,
2013-08-18 16:29:00,76.0,69.0,29.87,WSW,247,7.0,10.0,79,0.00,,-RA,0.00,VWS V14.01,2013-08-18 22:29:00,
2013-08-18 16:34:00,75.0,69.1,29.88,SW,225,6.0,7.0,82,0.00,,-RA,0.00,VWS V14.01,2013-08-18 22:34:00,
2013-08-18 16:39:00,75.0,69.5,29.88,South,180,7.0,8.0,83,0.00,,-RA,0.00,VWS V14.01,2013-08-18 22:39:00,
2013-08-18 16:44:00,74.0,68.9,29.87,South,180,7.0,9.0,84,0.01,,-RA,0.01,VWS V14.01,2013-08-18 22:44:00,
2013-08-18 16:49:00,74.0,68.9,29.87,SSE,157,11.0,13.0,84,0.01,,-RA,0.01,VWS V14.01,2013-08-18 22:49:00,
2013-08-18 16:54:00,73.0,67.9,29.88,SSE,157,8.0,13.0,84,0.01,,-RA,0.01,VWS V14.01,2013-08-18 22:54:00,
2013-08-18 16:59:00,73.0,67.9,29.88,SSE,157,6.0,13.0,84,0.01,,-RA,0.01,VWS V14.01,2013-08-18 22:59:00,
2013-08-18 17:04:00,73.0,67.5,29.87,SE,135,7.0,9.0,83,0.01,,SCT095,0.01,VWS V14.01,2013-08-18 23:04:00,
2013-08-18 17:09:00,73.0,67.9,29.87,SSE,157,15.0,17.0,84,0.01,,SCT095,0.01,VWS V14.01,2013-08-18 23:09:00,
2013-08-18 17:14:00,74.0,68.9,29.85,SSE,157,13.0,19.0,84,0.02,,SCT095,0.02,VWS V14.01,2013-08-18 23:14:00,
2013-08-18 17:19:00,75.0,69.5,29.85,SSE,157,12.0,19.0,83,0.02,,SCT095,0.02,VWS V14.01,2013-08-18 23:19:00,
2013-08-18 17:24:00,76.0,70.5,29.84,SSE,157,14.0,19.0,83,0.02,,SCT095,0.02,VWS V14.01,2013-08-18 23:24:00,
2013-08-18 17:29:00,77.0,71.4,29.84,South,180,13.0,19.0,83,0.02,,SCT095,0.02,VWS V14.01,2013-08-18 23:29:00,
2013-08-18 17:34:00,77.0,70.0,29.82,South,180,15.0,17.0,79,0.02,,SCT095,0.02,VWS V14.01,2013-08-18 23:34:00,
2013-08-18 17:39:00,77.0,68.1,29.82,SSE,157,13.0,17.0,74,0.02,,SCT095,0.02,VWS V14.01,2013-08-18 23:39:00,
2013-08-18 17:44:00,78.0,69.1,29.81,South,180,13.0,17.0,74,0.02,,SCT095,0.02,VWS V14.01,2013-08-18 23:44:00,
2013-08-18 17:50:00,78.0,71.0,29.81,SSW,202,10.0,17.0,79,0.02,,SCT095,0.02,VWS V14.01,2013-08-18 23:50:00,
2013-08-18 17:55:00,78.0,69.8,29.81,SSW,202,13.0,17.0,76,0.02,,SCT095,0.02,VWS V14.01,2013-08-18 23:55:00,
2013-08-18 18:00:00,77.0,70.7,29.81,SSW,202,12.0,13.0,81,0.01,,SCT095,0.02,VWS V14.01,2013-08-19 00:00:00,
2013-08-18 18:05:00,76.0,70.5,29.82,SSW,202,11.0,15.0,83,0.01,,CLR,0.02,VWS V14.01,2013-08-19 00:05:00,
2013-08-18 18:10:00,75.0,69.5,29.82,SSW,202,10.0,15.0,83,0.01,,CLR,0.02,VWS V14.01,2013-08-19 00:10:00,
2013-08-18 18:15:00,75.0,69.8,29.83,SSW,202,12.0,15.0,84,0.01,,CLR,0.02,VWS V14.01,2013-08-19 00:15:00,
2013-08-18 18:20:00,75.0,69.5,29.83,South,180,15.0,15.0,83,0.01,,CLR,0.02,VWS V14.01,2013-08-19 00:20:00,
2013-08-18 18:25:00,76.0,70.8,29.82,SW,225,7.0,15.0,84,0.01,,CLR,0.02,VWS V14.01,2013-08-19 00:25:00,
2013-08-18 18:30:00,77.0,71.4,29.82,SW,225,10.0,10.0,83,0.00,,CLR,0.02,VWS V14.01,2013-08-19 00:30:00,
2013-08-18 18:35:00,77.0,71.4,29.81,SW,225,9.0,13.0,83,0.00,,CLR,0.02,VWS V14.01,2013-08-19 00:35:00,
2013-08-18 18:40:00,77.0,71.4,29.81,SW,225,9.0,13.0,83,0.00,,CLR,0.02,VWS V14.01,2013-08-19 00:40:00,
2013-08-18 18:45:00,77.0,71.1,29.82,SW,225,8.0,13.0,82,0.00,,CLR,0.02,VWS V14.01,2013-08-19 00:45:00,
2013-08-18 18:50:00,77.0,71.4,29.82,SSW,202,7.0,13.0,83,0.00,,CLR,0.02,VWS V14.01,2013-08-19 00:50:00,
2013-08-18 18:55:00,77.0,71.1,29.81,SSW,202,10.0,13.0,82,0.00,,CLR,0.02,VWS V14.01,2013-08-19 00:55:00,
2013-08-18 19:00:00,78.0,71.3,29.81,SSW,202,10.0,10.0,80,0.00,,CLR,0.02,VWS V14.01,2013-08-19 01:00:00,
2013-08-18 19:05:00,78.0,71.7,29.81,SSW,202,7.0,10.0,81,0.00,,CLR,0.02,VWS V14.01,2013-08-19 01:05:00,
2013-08-18 19:10:00,77.0,70.7,29.81,SSW,202,9.0,10.0,81,0.00,,CLR,0.02,VWS V14.01,2013-08-19 01:10:00,
2013-08-18 19:15:00,77.0,71.1,29.81,SSW,202,7.0,10.0,82,0.00,,CLR,0.02,VWS V14.01,2013-08-19 01:15:00,
2013-08-18 19:20:00,76.0,70.5,29.81,SSW,202,9.0,10.0,83,0.00,,CLR,0.02,VWS V14.01,2013-08-19 01:20:00,
2013-08-18 19:25:00,76.0,70.1,29.81,SSW,202,9.0,10.0,82,0.00,,CLR,0.02,VWS V14.01,2013-08-19 01:25:00,
2013-08-18 19:30:00,76.0,70.1,29.81,SSW,202,7.0,9.0,82,0.00,,CLR,0.02,VWS V14.01,2013-08-19 01:30:00,
2013-08-18 19:35:00,75.0,69.1,29.82,SSW,202,9.0,11.0,82,0.00,,CLR,0.02,VWS V14.01,2013-08-19 01:35:00,
2013-08-18 19:40:00,74.0,68.5,29.82,SW,225,7.0,11.0,83,0.00,,CLR,0.02,VWS V14.01,2013-08-19 01:40:00,
2013-08-18 19:45:00,74.0,68.9,29.83,SSW,202,10.0,12.0,84,0.00,,CLR,0.02,VWS V14.01,2013-08-19 01:45:00,
2013-08-18 19:51:00,74.0,68.9,29.83,SW,225,9.0,12.0,84,0.00,,CLR,0.02,VWS V14.01,2013-08-19 01:51:00,
2013-08-18 19:56:00,73.0,67.9,29.83,SW,225,8.0,12.0,84,0.00,,CLR,0.02,VWS V14.01,2013-08-19 01:56:00,
2013-08-18 20:01:00,72.0,66.9,29.83,SW,225,7.0,8.0,84,0.00,,CLR,0.02,VWS V14.01,2013-08-19 02:01:00,
2013-08-18 20:06:00,72.0,66.9,29.85,SSW,202,6.0,8.0,84,0.00,,CLR,0.02,VWS V14.01,2013-08-19 02:06:00,
2013-08-18 20:11:00,72.0,66.9,29.85,SW,225,0.0,8.0,84,0.00,,CLR,0.02,VWS V14.01,2013-08-19 02:11:00,
2013-08-18 20:16:00,71.0,65.9,29.85,SW,225,0.0,8.0,84,0.00,,CLR,0.02,VWS V14.01,2013-08-19 02:16:00,
2013-08-18 20:21:00,71.0,65.2,29.85,South,180,0.0,8.0,82,0.00,,CLR,0.02,VWS V14.01,2013-08-19 02:21:00,
2013-08-18 20:26:00,71.0,65.6,29.87,South,180,0.0,8.0,83,0.00,,CLR,0.02,VWS V14.01,2013-08-19 02:26:00,
2013-08-18 20:31:00,71.0,65.6,29.87,SW,225,1.0,3.0,83,0.00,,CLR,0.02,VWS V14.01,2013-08-19 02:31:00,
2013-08-18 20:36:00,70.0,64.3,29.87,SW,225,4.0,6.0,82,0.00,,CLR,0.02,VWS V14.01,2013-08-19 02:36:00,
2013-08-18 20:41:00,70.0,63.5,29.87,SSW,202,5.0,6.0,80,0.00,,CLR,0.02,VWS V14.01,2013-08-19 02:41:00,
2013-08-18 20:46:00,70.0,63.2,29.88,SW,225,2.0,6.0,79,0.00,,CLR,0.02,VWS V14.01,2013-08-19 02:46:00,
2013-08-18 20:51:00,70.0,62.8,29.88,SW,225,3.0,6.0,78,0.00,,CLR,0.02,VWS V14.01,2013-08-19 02:51:00,
2013-08-18 20:56:00,70.0,60.6,29.89,SSW,202,6.0,7.0,72,0.00,,CLR,0.02,VWS V14.01,2013-08-19 02:56:00,
2013-08-18 21:01:00,69.0,60.8,29.89,SW,225,4.0,6.0,75,0.00,,CLR,0.02,VWS V14.01,2013-08-19 03:01:00,
2013-08-18 21:06:00,68.0,55.0,29.90,SW,225,5.0,6.0,63,0.00,,CLR,0.02,VWS V14.01,2013-08-19 03:06:00,
2013-08-18 21:11:00,68.0,51.2,29.90,SW,225,7.0,7.0,55,0.00,,CLR,0.02,VWS V14.01,2013-08-19 03:11:00,
2013-08-18 21:16:00,68.0,50.2,29.91,SW,225,7.0,9.0,53,0.00,,CLR,0.02,VWS V14.01,2013-08-19 03:16:00,
2013-08-18 21:21:00,68.0,46.5,29.91,SW,225,7.0,9.0,46,0.00,,CLR,0.02,VWS V14.01,2013-08-19 03:21:00,
2013-08-18 21:26:00,68.0,45.9,29.91,SW,225,7.0,9.0,45,0.00,,CLR,0.02,VWS V14.01,2013-08-19 03:26:00,
2013-08-18 21:31:00,68.0,54.1,29.91,SW,225,7.0,9.0,61,0.00,,CLR,0.02,VWS V14.01,2013-08-19 03:31:00,
2013-08-18 21:36:00,68.0,54.5,29.90,SW,225,7.0,9.0,62,0.00,,CLR,0.02,VWS V14.01,2013-08-19 03:36:00,
2013-08-18 21:41:00,68.0,56.7,29.91,SW,225,7.0,10.0,67,0.00,,CLR,0.02,VWS V14.01,2013-08-19 03:41:00,
2013-08-18 21:46:00,69.0,63.6,29.91,SW,225,11.0,12.0,83,0.00,,CLR,0.02,VWS V14.01,2013-08-19 03:46:00,
2013-08-18 21:51:00,69.0,64.0,29.90,SW,225,11.0,12.0,84,0.00,,CLR,0.02,VWS V14.01,2013-08-19 03:51:00,
2013-08-18 21:56:00,69.0,62.9,29.90,SW,225,10.0,13.0,81,0.00,,CLR,0.02,VWS V14.01,2013-08-19 03:56:00,
2013-08-18 22:01:00,69.0,62.9,29.90,SW,225,10.0,12.0,81,0.00,,CLR,0.02,VWS V14.01,2013-08-19 04:01:00,
2013-08-18 22:06:00,69.0,63.6,29.89,SW,225,9.0,13.0,83,0.00,,CLR,0.02,VWS V14.01,2013-08-19 04:06:00,
2013-08-18 22:11:00,68.0,62.0,29.91,SW,225,9.0,13.0,81,0.00,,CLR,0.02,VWS V14.01,2013-08-19 04:11:00,
2013-08-18 22:16:00,68.0,62.3,29.91,SW,225,9.0,13.0,82,0.00,,CLR,0.02,VWS V14.01,2013-08-19 04:16:00,
2013-08-18 22:21:00,68.0,63.3,29.91,SW,225,8.0,13.0,85,0.00,,CLR,0.02,VWS V14.01,2013-08-19 04:21:00,
2013-08-18 22:26:00,67.0,62.3,29.91,SW,225,8.0,13.0,85,0.00,,CLR,0.02,VWS V14.01,2013-08-19 04:26:00,
2013-08-18 22:31:00,68.0,63.3,29.91,SW,225,9.0,9.0,85,0.00,,CLR,0.02,VWS V14.01,2013-08-19 04:31:00,
2013-08-18 22:36:00,68.0,63.0,29.91,South,180,12.0,14.0,84,0.00,,CLR,0.02,VWS V14.01,2013-08-19 04:36:00,
2013-08-18 22:41:00,70.0,62.5,29.90,SSW,202,12.0,14.0,77,0.00,,CLR,0.02,VWS V14.01,2013-08-19 04:41:00,
2013-08-18 22:47:00,70.0,61.7,29.90,SW,225,10.0,14.0,75,0.00,,CLR,0.02,VWS V14.01,2013-08-19 04:47:00,
2013-08-18 22:52:00,70.0,62.8,29.89,SW,225,8.0,14.0,78,0.00,,CLR,0.02,VWS V14.01,2013-08-19 04:52:00,
2013-08-18 22:57:00,69.0,63.3,29.89,SW,225,8.0,14.0,82,0.00,,CLR,0.02,VWS V14.01,2013-08-19 04:57:00,
2013-08-18 23:02:00,69.0,63.3,29.90,SW,225,11.0,13.0,82,0.00,,CLR,0.02,VWS V14.01,2013-08-19 05:02:00,
2013-08-18 23:07:00,69.0,62.6,29.90,SW,225,12.0,13.0,80,0.00,,CLR,0.02,VWS V14.01,2013-08-19 05:07:00,
2013-08-18 23:12:00,69.0,61.9,29.90,SW,225,9.0,13.0,78,0.00,,CLR,0.02,VWS V14.01,2013-08-19 05:12:00,
2013-08-18 23:17:00,69.0,61.9,29.90,SW,225,10.0,13.0,78,0.00,,CLR,0.02,VWS V14.01,2013-08-19 05:17:00,
2013-08-18 23:22:00,69.0,60.8,29.89,WSW,247,7.0,13.0,75,0.00,,CLR,0.02,VWS V14.01,2013-08-19 05:22:00,
2013-08-18 23:27:00,69.0,60.0,29.89,WSW,247,7.0,13.0,73,0.00,,CLR,0.02,VWS V14.01,2013-08-19 05:27:00,
2013-08-18 23:32:00,69.0,60.0,29.89,SW,225,9.0,9.0,73,0.00,,CLR,0.02,VWS V14.01,2013-08-19 05:32:00,
2013-08-18 23:37:00,69.0,59.2,29.89,SW,225,8.0,10.0,71,0.00,,CLR,0.02,VWS V14.01,2013-08-19 05:37:00,
2013-08-18 23:42:00,70.0,59.8,29.89,SW,225,7.0,10.0,70,0.00,,CLR,0.02,VWS V14.01,2013-08-19 05:42:00,
2013-08-18 23:47:00,69.0,59.2,29.89,WSW,247,5.0,10.0,71,0.00,,CLR,0.02,VWS V14.01,2013-08-19 05:47:00,
2013-08-18 23:52:00,69.0,59.2,29.89,WNW,292,0.0,10.0,71,0.00,,CLR,0.02,VWS V14.01,2013-08-19 05:52:00,
2013-08-18 23:57:00,69.0,60.4,29.89,SW,225,8.0,12.0,74,0.00,,CLR,0.02,VWS V14.01,2013-08-19 05:57:00,